Home > Weather > Chesterfield > Past weeks

Flag for United Kingdom Past Weather in Chesterfield, England, United Kingdom — Yesterday and Last 2 Weeks

Now
58 °F

Cool.


Feels Like: 57 °F
Forecast: 50 / 68 °F
Wind: 6 mph from Southwest

Location: Nottingham Weather Centre

Current Time: Jul 25, 2016 at 3:27:44 AM

Latest Report: Jul 25, 2016 at 2:00 AM


Visibility: 10 mi

Pressure: 30.01 "Hg

Humidity: 89%

Dew Point: 54 °F

Location of ChesterfieldLocation

Past Weather in Chesterfield — Graph

°F

Chesterfield Temperature Yesterday

Maximum temperature yesterday: 71 °F (at 2:00 PM)
Minimum temperature yesterday: 59 °F (at 6:00 AM)
Average temperature yesterday: 66 °F

High & Low Weather Summary for the Past Weeks

 TemperatureHumidityPressure
High87 °F (Jul 19, 5:00 PM)100% (Jul 18, 7:00 AM)30.31 "Hg (Jul 18, 7:00 AM)
Low47 °F (Jul 13, 6:00 AM)35% (Jul 19, 1:00 PM)29.54 "Hg (Jul 11, 4:00 AM)
Average65 °F75%30.02 "Hg
* Reported Jul 10 1:00 AM — Jul 25 1:00 AM, Chesterfield, Weather by CustomWeather, © 2016

Note: Actual official high and low records may vary slightly from our data, if they occured in-between our weather recording intervals... More about our weather records

Advertising

Chesterfield Weather History for the Previous 24 Hours

Scroll right to see more
 ConditionsComfort  
Time TempWeatherWind HumidityBarometerVisibility
1:00 AM
Mon, Jul 25
60 °FCool.7 mph82%30.01 "Hg25 mi
12:00 AM62 °FCool.7 mph75%30.01 "Hg8 mi
11:00 PM
Sun, Jul 24
64 °FMild.10 mph72%30.00 "Hg22 mi
10:00 PM65 °FMild.6 mph84%29.99 "Hg31 mi
9:00 PM67 °FMild.8 mph79%29.98 "Hg18 mi
8:00 PM68 °FMild.7 mph74%29.98 "Hg14 mi
7:00 PM69 °FMild.8 mph71%29.98 "Hg9 mi
6:00 PM69 °FMild.8 mph71%29.98 "Hg7 mi
5:00 PM70 °FMild.10 mph67%29.99 "Hg17 mi
4:00 PM71 °FMild.9 mph61%30.00 "Hg15 mi
3:00 PM71 °FMild.8 mph65%30.01 "Hg15 mi
2:00 PM71 °FMild.8 mph63%30.02 "Hg7 mi
1:00 PM70 °FMild.9 mph65%30.03 "Hg13 mi
12:00 PM71 °FMild.7 mph67%30.03 "Hg9 mi
11:00 AM69 °FMild.8 mph71%30.04 "Hg6 mi
10:00 AM67 °FMild.6 mph74%30.06 "Hg17 mi
9:00 AM63 °FMild.6 mph80%30.08 "Hg28 mi
8:00 AM63 °FMild.5 mph83%30.07 "Hg17 mi
7:00 AM60 °FCool.5 mph86%30.07 "Hg6 mi
6:00 AM59 °FCool.3 mph89%30.07 "Hg9 mi
5:00 AM60 °FCool.3 mph89%30.08 "Hg9 mi
4:00 AM60 °FCool.2 mph86%30.09 "Hg9 mi
3:00 AM62 °FCool.3 mph83%30.09 "Hg19 mi
Weather by CustomWeather, © 2016

See weather overviewHow to use our weather pages